ASTRA 1G
1 25071U 97076A   03023.00000000  .00000124  00000-0  10000-3 0  3885
2 25071   0.0122 319.8851 0002995  65.1991 116.0322  1.00273184 18878
INMARSAT 3-F5
1 25153U 98006B   03028.98434608  .00000136  00000-0  10000-3 0  8379
2 25153   0.4569 357.4680 0004493 322.9274 186.7353  1.00272183 18291
HOT BIRD 4
1 25237U 98013A   03013.80550721  .00000107  00000-0  10000-3 0  3250
2 25237   0.0242 116.4838 0007929 193.6371 105.7449  1.00276095 18185
NOAA 15
1 25338U 98030A   03031.89457865  .00000145  00000-0  81582-4 0  9910
2 25338  98.5502  54.5232 0010911  13.4698 346.6772 14.24235888245287
RESURS O1-N4
1 25394U 98043A   03032.20877552  .00000101  00000-0  62986-4 0  4375
2 25394  98.6359 110.4577 0001890 134.8037 225.3295 14.23870837237063
TMSAT
1 25396U 98043C   03031.89335883 -.00000043  00000-0  00000+0 0  8191
2 25396  98.6291 109.3410 0002769 163.7970 196.3299 14.23505785237019
TECHSAT 1B
1 25397U 98043D   03029.93946311 +.00000077 +00000-0 +53649-4 0 01245
2 25397 098.6263 106.3341 0000991 164.5017 195.6192 14.22955094236705
ASTRA 2A
1 25462U 98050A   03023.69277567  .00000000  00000-0  10000-3 0  5291
2 25462   0.0332  23.2945 0014243 166.1651 210.9165  1.00270553 16187
EUTELSAT W2
1 25491U 98056A   03029.00266876  .00000099  00000-0  00000+0 0  5711
2 25491   0.0278 124.8124 0003697 176.6640 203.3209  1.00274433 15848
HOT BIRD 5
1 25495U 98057A   03028.98801506  .00000150  00000-0  00000+0 0  4950
2 25495   0.0153 266.2596 0004156  42.4510 207.8526  1.00271667 15819
SEDSAT 1
1 25509U 98061B   03030.97888593  .00000885  00000-0  16641-3 0  7684
2 25509  31.4284 258.1524 0357377 140.5710 222.1499 14.27404613222650
PAN SAT
1 25520U 98064B   03031.16592056  .00002390  00000-0  11871-3 0  6343
2 25520  28.4597 346.4165 0005937 155.1805 204.9060 15.13781807234796
ISS (ZARYA)
1 25544U 98067A   03032.17634259  .00040254  00000-0  49099-3 0  6452
2 25544  51.6371 343.4088 0005341 101.0798 104.8744 15.60050038239789
ORSTED
1 25635U 99008B   03031.52221781  .00000777  00000-0  20384-3 0  8206
2 25635  96.4482  22.0760 0146443  26.8306 334.0365 14.44799995207330
SUNSAT
1 25636U 99008C   03030.23161074  .00000363  00000-0  10264-3 0  6601
2 25636  96.4516  19.7926 0150414  37.0876 324.0600 14.42932458207023
UOSAT 12
1 25693U 99021A   03032.20949072  .00000407  00000-0  78175-4 0  6650
2 25693  64.5597  63.9188 0018721 316.5071  43.4554 14.76366903203690
FENGYUN 1C
1 25730U 99025A   03032.21796799 -.00000029  00000-0  70626-5 0  7569
2 25730  98.6354  57.2700 0015228  54.2020 306.0564 14.11731540192188
ASTRA 1H
1 25785U 99033A   03023.00000000  .00000123  00000-0  10000-3 0  3690
2 25785   0.0122 319.8851 0002995  65.1991 116.0174  1.00273184 13230
TERRA
1 25994U 99068A   03032.14548452  .00000519  00000-0  12520-3 0  6559
2 25994  98.2009 108.6348 0001054  82.0057 278.1273 14.57110316166137
JAWSAT
1 26061U 00004A   03031.90377642  .00000423  00000-0  15900-3 0  7540
2 26061 100.2106  85.6926 0034716 330.0801  29.8395 14.37802568157990
OPAL
1 26063U 00004C   03031.71179705  .00000094  00000-0  53074-4 0  7113
2 26063 100.2156  83.0506 0037202 337.5804  22.3747 14.35473020157827
ASUSAT
1 26065U 00004E   03031.87810963  .00000115  00000-0  60139-4 0  7226
2 26065 100.2154  83.3924 0037103 338.4013  21.5600 14.35499978157847
GOES 11
1 26352U 00022A   03031.16906446 -.00000047  00000-0  10000-3 0    04
2 26352   0.0963 105.5322 0004270 180.3658 152.0194  1.00263110 10052
EUTELSAT W4
1 26369U 00028A   03028.81856696  .00000150  00000-0  00000+0 0  3481
2 26369   0.0297  41.0424 0009627 313.4883 103.8214  1.00274845  9846
FENGYUN 2B
1 26382U 00032A   03031.55499757 -.00000334  00000-0  00000+0 0  7790
2 26382   0.6110 287.1027 0000385 155.6959 351.1687  1.00257359  9534
EUTELSAT W1
1 26487U 00052A   03028.81965858  .00000063  00000-0  10000-3 0  3499
2 26487   0.0101 302.0094 0003628 296.2496 194.4288  1.00271090  8819
ASTRA 2B
1 26494U 00054A   03023.00000000  .00000154  00000-0  00000+0 0  2523
2 26494   0.0178 354.5658 0005000 302.8402 212.7100  1.00276704  8652
NOAA 16
1 26536U 00055A   03031.58194079 -.00000042  00000-0  12246-5 0  1890
2 26536  98.8992 340.0008 0010674   1.5943 358.5260 14.11892218121611
SAUDISAT 1A
1 26545U 00057A   03030.74773658  .00000937  00000-0  14330-3 0  4052
2 26545  64.5592  89.7685 0053341 241.7734 117.8021 14.78927899126432
UNISAT
1 26547U 00057C   03030.74367382  .00001804  00000-0  25168-3 0  4243
2 26547  64.5571  92.0868 0060528 244.1868 115.3005 14.79660001126403
TIUNGSAT 1
1 26548U 00057D   03029.65147668  .00001265  00000-0  17785-3 0  4084
2 26548  64.5579  86.2475 0046644 241.0722 118.5705 14.81198315126419
SAUDISAT 1B
1 26549U 00057E   03032.19134047  .00001074  00000-0  16464-3 0  6808
2 26549  64.5554  89.3567 0057641 241.8642 117.6607 14.77872254126571
AMSAT OSCAR 40
1 26609U 00072B   03031.12919724 -.00000153  00000-0  10000-3 0  3071
2 26609   8.0453  67.5507 7939050 138.7490 320.5387  1.25596638 10352
GOES 12
1 26871U 01031A   03031.16216598 -.00000141  00000-0  10000-3 0  8006
2 26871   0.3724 276.8406 0003287 355.3269 175.6425  1.00363378  5655
PCSAT
1 26931U 01043C   03031.46922056  .00000144  00000-0  89231-4 0  3901
2 26931  67.0485 302.2103 0005164 263.2068  96.8445 14.29105091 69763
SAPPHIRE
1 26932U 01043D   03032.21927680  .00000106  00000-0  73993-4 0  3854
2 26932  67.0567 299.9884 0005642 239.6444 120.4099 14.29287628 69899
ENVISAT
1 27386U 02009A   03032.14987712  .00000141  00000-0  68389-4 0  8986
2 27386  98.5460 100.9505 0000886  91.6646 268.4662 14.32250364 48257
IDEFIX/ARIANE 42P
1 27422U 02021B   03032.22515996  .00000175  00000-0  88373-4 0  2224
2 27422  98.6986 111.5058 0012309 197.0067 163.0703 14.27959459 38984
FENGYUN 1D
1 27431U 02024B   03031.84389083 -.00000179  00000-0 -78359-4 0  2049
2 27431  98.7711  81.2980 0015542 171.7734 188.3695 14.09174688 36879
NOAA 17
1 27453U 02032A   03031.85016246  .00000229  00000-0  12067-3 0  2891
2 27453  98.7609 103.1530 0012561  50.4901 309.7385 14.23281943 31443
HOT BIRD 6
1 27499U 02038A   03013.80550721  .00000106  00000-0  10000-3 0   665
2 27499   0.0928  32.8693 0008090 290.3889  92.5421  1.00271722  1476
RUBIN 2
1 27605U 02058A   03032.04432979  .00000190  00000-0  51969-4 0   435
2 27605  64.5551 250.4557 0029492 117.2391 243.1718 14.71399324  6236
STS 107
1 27647U 03003A   03032.25000000  .00070100  74763-5  12018-3 0   634
2 27647  39.0164 124.9099 0008781 145.1170 207.2382 16.01765594  2491
